Regional Weather Roundup
Issued by NWS

Home | Current Version | Previous Version | Graphics & Text | Print | Product List | Glossary On
Versions: 1 2 3 4 5 6 7 8 9 10 11 12 13 14 15 16 17 18 19 20 21 22 23 24 25 26 27 28 29 30 31 32 33 34 35 36 37 38 39 40 41 42 43 44 45 46 47 48 49 50
000
ASUS43 KTOP 100559
RWRKS

WEATHER ROUNDUP FOR KANSAS
NATIONAL WEATHER SERVICE GOODLAND KS
100 AM CDT THU JUL 10 2014

NOTE:  "FAIR" INDICATES FEW OR NO CLOUDS BELOW 12,000 FEET WITH NO
SIGNIFICANT WEATHER AND/OR OBSTRUCTIONS TO VISIBILITY.

KSZ001>006-013>018-027>032-041>047-100700-
NORTHWEST KANSAS

CITY           SKY/WX    TMP DP  RH WIND       PRES   REMARKS
GOODLAND       CLOUDY    69  54  58 SW7       29.97F
6HR MIN TEMP:  67; 6HR MAX TEMP:  86;

HAYS           CLOUDY    70  63  78 S14G21    30.00F THUNDER
HILL CITY      MOCLDY    77  57  50 E17       29.96F
6HR MIN TEMP:  77; 6HR MAX TEMP:  88;

RUSSELL        MOCLDY    74  60  61 SE6       30.01R
6HR MIN TEMP:  74; 6HR MAX TEMP:  87; 6HR PCP: TRACE;

$$

KSZ061>065-074>080-084>089-100700-
SOUTHWEST KANSAS

CITY           SKY/WX    TMP DP  RH WIND       PRES   REMARKS
DODGE CITY     PTCLDY    74  65  73 S16G25    29.99R
6HR MIN TEMP:  74; 6HR MAX TEMP:  84;

ELKHART          N/A     72  52  49 S3          N/A
GARDEN CITY    CLOUDY    71  65  81 SW7       30.00S
6HR MIN TEMP:  71; 6HR MAX TEMP:  86;

GREAT BEND     CLOUDY    66  63  88 S23G33    30.03F THUNDER
LIBERAL        MOCLDY    79  61  53 S14       30.00F
$$

KSZ066>073-081>083-090>101-100700-
SOUTHEAST KANSAS

CITY           SKY/WX    TMP DP  RH WIND       PRES   REMARKS
CHANUTE        CLEAR     69  61  75 SE6       30.06R
6HR MIN TEMP:  68; 6HR MAX TEMP:  84;

COFFEYVILLE    CLEAR     71  59  65 E5        30.05S
6HR MIN TEMP:  70; 6HR MAX TEMP:  87;

HUTCHINSON     MOCLDY    77  62  59 SE14      29.98F
6HR MIN TEMP:  75; 6HR MAX TEMP:  89;

MEDICINE LODGE   N/A     76  64  66 SE7       29.98R
NEWTON         CLOUDY    73  57  56 NE10      30.09R
PARSONS        CLEAR     73  58  59 E3        30.06S
6HR MIN TEMP:  69; 6HR MAX TEMP:  85;

WICHITA INTL   CLOUDY    77  62  59 SE16      30.01S
6HR MIN TEMP:  76; 6HR MAX TEMP:  87;

WICHITA JABRA  MOCLDY    73  61  65 SE9       30.02S
6HR MIN TEMP:  73; 6HR MAX TEMP:  86;

WINFIELD       PTCLDY    74  63  68 SE9       30.03F
6HR MIN TEMP:  73; 6HR MAX TEMP:  87;

$$

KSZ007>012-019>026-033>040-048>060-102>105-100700-
NORTHEAST KANSAS

CITY           SKY/WX    TMP DP  RH WIND       PRES   REMARKS
CONCORDIA      CLOUDY    68  64  87 E9        30.05S
6HR MIN TEMP:  68; 6HR MAX TEMP:  86; 6HR PCP:  0.36;

EMPORIA        LGT RAIN  69  64  84 N5        30.10
6HR MIN TEMP:  69; 6HR MAX TEMP:  83; 6HR PCP: TRACE;

LAWRENCE       MOCLDY    70  64  81 E6        30.06S
6HR MIN TEMP:  69; 6HR MAX TEMP:  82;

MANHATTAN      LGT RAIN  70  66  87 S7        30.04F
6HR MIN TEMP:  70; 6HR MAX TEMP:  87; 6HR PCP:  0.17;

OLATHE IND     MOCLDY    71  62  73 SE6       30.07S
6HR MIN TEMP:  70; 6HR MAX TEMP:  82;

OLATHE EXE     PTCLDY    69  61  75 SE6       30.07R
6HR MIN TEMP:  69; 6HR MAX TEMP:  81;

SALINA         MOCLDY    73  61  65 SE15G24   30.00F
6HR MIN TEMP:  73; 6HR MAX TEMP:  89; 6HR PCP:  0.02;

TOPEKA BILLARD CLOUDY    75  62  64 CALM      30.06R
6HR MIN TEMP:  73; 6HR MAX TEMP:  84;

TOPEKA FORBES  CLOUDY    72  62  71 S6        30.06S
6HR MIN TEMP:  71; 6HR MAX TEMP:  84; 6HR PCP: TRACE;

$$


USA.gov is the U.S. government's official web portal to all federal, state and local government web resources and services.